Location: DARK SKY Beskydy - Park tmavé oblohy, www.darkskybeskydy.cz
(49.4926°N, 18.5016°E)
Time: 19:01:49
(UTC+02:00)

PCSat - Pass Details

Date: 05 August 2024
Orbit: 781 x 793 km, 67.1° (Epoch: 08 September)

Event Time Altitude Azimuth Distance (km) Brightness Sun altitude
Rises 03:41:52 0° 323° (NW) 3,301 12.9 -13.8°
Reaches altitude 10° 03:44:18 10° 321° (NW) 2,368 12.1 -13.5°
Maximum altitude 03:49:42 70° 239° (WSW) 845 9.5 -12.9°
Drops below altitude 10° 03:55:04 10° 157° (SSE) 2,351 11.8 -12.3°
Sets 03:57:28 0° 155° (SSE) 3,276 12.6 -12.0°
